Location: Black Forest
(43.4794°N, 75.0081°W)
Time: 17:27:30
(UTC-04:00)

ISS - Visible Passes

Search period start: 03 September 2015 00:00
Search period end: 13 September 2015 00:00
Orbit: 400 x 403 km, 51.6° (Epoch: 01 September)

Date Brightness Start Highest point End Pass type
(mag) Time Alt. Az. Time Alt. Az. Time Alt. Az.
09 Sep -0.9 05:13:55 10° S 05:16:08 17° SE 05:18:25 10° E visible
10 Sep -3.2 05:55:44 10° SW 05:58:58 72° SE 06:02:14 10° ENE visible
11 Sep -2.2 05:04:32 26° S 05:05:46 37° SE 05:08:50 10° ENE visible
12 Sep -0.8 04:13:36 18° ESE 04:13:36 18° ESE 04:15:08 10° E visible
12 Sep -3.0 05:46:12 14° WSW 05:48:49 56° NNW 05:52:03 10° NE visible
